logo
Rechercher aéroport 
image banner adimage banner adimage banner ad
image banner ad

KEDW - Edwards Afb

Situé à Edwards, United States

ICAO - EDW, IATA -

Données fournies par Airmate  

Information générale

Coordonnées: N34°54'29" W117°53'8"
Élévation : 2311 feet MSL.
Variation magnétique : 12° East
Voir autres Aéroports à California

Données opérationnelles

Special qualification required
Heure actuelle UTC:
Heure actuelle locale:
Météo
METAR: KEDW 261556Z 00000KT 50SM FEW100 24/09 A3003 RMK AO2A SLP146 T02350087
TAF: TAF KEDW 261300Z 2613/2719 VRB06KT 9999 FEW250 QNH2998INS BECMG 2619/2620 06010KT 9999 FEW250 QNH2993INS BECMG 2700/2701 VRB06KT 9999 FEW250 QNH2994INS TX37/2622Z TN19/2613Z
Voir NOTAMs / SUP AIP / TFR affectant cet aéroport [VIEW]
Fréquences de communication: [VIEW]

Pistes:

Identifiant RWYQFULongueur (ft)Largeur (ft)SurfaceLDA (ft)
05L12000200ASPH
23R12000200ASPH
05R58°15024300CONC
23L238°15024300CONC
07800050CONC
25800050CONC

Coordonnées de l'aéroport

Adresse: Edwards United States

Autres services d'aviation

Écoles de pilotage

Edwards Afb Aero Club

Edwards Afb Aero Club
+1(661)275-2376

Vue satellite de KEDW